Simultaneous Nadir Overpasses (SNOs) Predictions

Prediction of SNOs between NOAA-19 and METOP-C Satellite Orbit:

Table of predicted SNOs for the next 14.0 days since TLE Epoch: 5/17/2019
Index Date (NOAA-19) Time (NOAA-19) Lat,Lon (NOAA-19) SZA (NOAA-19 ) Date (METOP-C) Time (METOP-C) Lat,Lon (METOP-C) SZA (METOP-C ) Distance(km) Time Diff (sec)
1 05/18/2019 17:05:14 -79.22, 119.13 119.97 05/18/2019 17:06:26 -79.20, 119.02 119.98 3.17 72
2 05/18/2019 17:56:16 79.19, -73.41 60.01 05/18/2019 17:57:05 79.22, -73.46 60.05 3.60 49
3 05/18/2019 18:47:14 -79.19, 93.86 120.00 05/18/2019 18:47:47 -79.22, 93.84 119.96 3.22 33
4 05/18/2019 19:38:17 79.20, -98.95 60.00 05/18/2019 19:38:27 79.21, -98.90 60.02 1.73 10
5 05/18/2019 20:29:15 -79.19, 68.33 120.01 05/18/2019 20:29:09 -79.20, 68.40 120.00 1.94 6
6 05/18/2019 21:20:18 79.20,-124.49 59.99 05/18/2019 21:19:49 79.19,-124.34 59.98 3.13 29
7 05/18/2019 22:11:15 -79.17, 43.06 120.04 05/18/2019 22:10:31 -79.19, 42.96 120.03 3.48 44
8 05/18/2019 23:02:18 79.17,-149.76 59.96 05/18/2019 23:01:11 79.18,-149.78 59.95 0.98 67
9 05/29/2019 16:37:25 -79.25, 126.21 121.99 05/29/2019 16:38:32 -79.23, 126.23 122.00 2.49 67
10 05/29/2019 17:28:24 79.23, -66.34 58.00 05/29/2019 17:29:11 79.24, -66.37 58.02 1.19 47
11 05/29/2019 18:19:25 -79.22, 100.94 122.01 05/29/2019 18:19:54 -79.21, 100.79 122.02 3.36 29
12 05/29/2019 19:10:25 79.23, -91.89 57.99 05/29/2019 19:10:33 79.22, -91.81 57.99 1.91 8
13 05/29/2019 20:01:26 -79.23, 75.40 122.02 05/29/2019 20:01:16 -79.20, 75.35 122.05 3.18 10
14 05/29/2019 20:52:25 79.21,-117.16 57.97 05/29/2019 20:51:55 79.21,-117.25 57.96 1.89 30
15 05/29/2019 21:43:26 -79.20, 50.13 122.05 05/29/2019 21:42:37 -79.22, 50.17 122.04 2.47 49
16 05/29/2019 22:34:26 79.21,-142.70 57.96 05/29/2019 22:33:17 79.20,-142.69 57.93 1.62 69




NCC Satellite Simultaneous Nadir Overpasses (SNOs) Prediction Service
